User: anonymous   Login
Location: Unspecified
(0.0000°N, 0.0000°E)
Time: 13:01:29
(UTC+00:00)
Language:

STSS DEMO 1 (USA 208) - Orbit

View from above orbital plane
View from above orbital plane
View from above satellite
View from above satellite

Ground track
Ground track

The orbit data is extracted from the following two-line orbital elements,

1 35937U 09052A   21010.19897210 0.00000000  00000-0  00000-0 0    07
2 35937  57.9897 100.1640 0016679 175.8821 184.1179 12.79338850    04
Epoch (UTC): 10 January 2021 04:46:31
Eccentricity: 0.0016679
inclination: 57.9897°
perigee height: 1331 km
apogee height: 1357 km
right ascension of ascending node: 100.1640°
argument of perigee: 175.8821°
revolutions per day: 12.79338850
mean anomaly at epoch: 184.1179°
orbit number at epoch: 0

The dashed part of the orbit path shows where the satellite is in the earth's shadow,  

DLR